CAPE
0 0 0 0 0 0 0 0 0 208 511 571 1453 2020 2060 1830 2039 2338 2401 2371 2249 2005 1469 1282 1396 1047 810 326 368 216 184 94 66 493 307 100 48 332 137 253 252 389 132
0 0 0 0 0 0 0 0 11 100 391 307 1187 1687 1559 1700 2274 2558 2475 2101 2024 1886 1401 1413 1093 972 873 433 309 274 171 191 126 502 163 58 74 102 6 3 153 368 248
0 0 0 0 0 0 0 0 23 265 522 493 1069 1440 1537 1719 2351 2459 2250 1999 1916 1538 1365 1190 1061 893 551 303 335 280 275 284 318 285 267 66 7 1 2 3 6 32 65
5 0 1 0 0 1 22 10 66 107 343 685 1171 1461 1444 1723 2156 2196 2106 1950 1624 1354 1215 1173 908 562 406 371 313 242 280 311 244 274 190 112 16 1 5 1 2 3 2
6 2 0 0 0 0 79 91 114 206 392 886 1339 1537 1495 1862 1948 2030 1991 1705 1447 1174 1199 752 503 373 213 278 198 252 299 343 195 121 224 91 68 2 15 2 2 2 2
1 5 1 0 0 0 219 192 269 307 827 1283 1573 1518 1804 1774 1528 1793 1692 1499 1283 908 683 417 388 109 12 13 5 0 109 407 320 234 245 248 207 109 83 13 1 0 0
11 9 4 2 0 0 381 288 450 977 1725 1993 1866 1789 2068 1750 1337 1167 1210 1312 709 555 454 407 293 41 25 32 0 0 0 0 15 395 392 412 510 59 47 4 8 0 0
0 0 6 4 4 22 537 455 1039 1963 2206 2247 2204 2141 2190 1389 860 727 593 670 497 464 495 378 264 214 153 111 44 6 43 83 65 68 125 297 177 64 89 57 16 49 21
4 7 4 1 1 399 488 1008 1975 2404 2396 2367 2250 2253 2195 684 374 345 137 487 482 469 383 303 233 213 7 0 3 46 98 52 0 0 4 17 18 59 88 3 0 8 10
11 5 0 0 23 680 1009 1982 2339 2355 2360 2053 2255 2268 1820 662 95 0 154 105 279 235 237 250 0 72 0 0 6 68 53 27 0 0 0 0 1 14 8 55 4 21 3
0 0 0 143 556 1172 1856 1715 1820 1972 2152 2038 2015 1831 1416 579 0 0 30 49 101 128 96 95 0 0 0 0 0 59 43 27 1 0 1 0 33 32 62 85 79 66 42
77 417 622 910 1253 1406 1330 1505 1705 1831 1708 1645 1298 1116 576 147 0 0 3 6 127 148 100 85 19 0 0 0 0 0 0 2 4 2 2 2 4 2 10 49 75 203 38
224 722 1007 1100 1121 1174 1362 1411 1478 1617 1122 966 1012 283 161 11 0 0 0 7 3 198 88 5 0 0 0 0 0 0 0 5 18 32 16 10 6 3 3 27 24 6 9
65 505 739 947 1091 1195 1409 1581 1602 1168 1111 610 171 128 39 0 0 0 0 0 0 0 0 0 0 0 0 0 0 0 1 13 2 2 3 10 11 3 2 1 3 20 28
128 296 439 625 750 857 822 1331 1420 846 569 276 210 104 46 24 9 0 0 0 0 0 0 0 2 3 4 2 2 7 22 8 5 0 1 5 4 3 2 1 2 14 14
133 143 137 127 248 374 317 33 0 6 3 9 14 38 56 14 0 0 0 0 0 0 2 6 1 2 1 3 10 27 19 7 1 4 6 6 4 2 0 1 3 0 12
36 76 86 200 293 272 255 42 0 0 0 0 0 0 0 0 0 0 0 0 0 0 16 5 4 3 4 3 25 21 21 22 11 6 10 7 4 2 1 1 2 2 0
15 57 199 355 249 253 95 22 0 18 0 0 0 0 0 0 0 0 0 0 0 2 6 6 4 4 4 1 21 26 14 8 10 12 5 2 3 1 1 1 1 3 3
1 49 167 259 157 178 148 81 31 22 0 0 0 0 0 0 0 0 0 2 3 4 6 10 16 9 4 4 29 0 5 1 12 12 15 14 3 1 2 6 0 0 4
136 61 179 253 233 206 188 155 46 2 1 2 1 0 0 1 1 1 3 18 15 8 4 5 11 26 6 21 0 12 3 4 9 11 10 17 15 5 1 1 0 0 0
21 39 115 230 270 268 248 223 109 25 10 34 0 0 0 25 3 3 16 16 37 22 20 24 24 24 22 16 21 10 12 30 34 33 26 3 0 6 7 2 0 0 2
105 166 174 219 235 227 162 73 72 49 14 1 1 0 0 4 3 2 0 0 0 3 42 17 19 3 2 24 43 26 22 8 25 11 0 22 14 0 0 0 0 1 16
152 152 221 198 133 27 35 32 33 44 4 2 2 4 9 3 0 0 0 2 2 1 0 1 0 0 0 3 0 6 8 29 32 16 22 2 1 22 8 1 6 25 6
173 125 132 94 64 55 54 19 6 2 3 3 5 1 0 1 1 2 3 5 5 1 0 0 3 0 0 0 0 0 0 0 35 23 58 4 0 0 2 1 8 0 0
163 106 72 64 37 7 5 5 3 3 2 1 3 1 4 4 3 5 4 3 0 0 0 0 1 3 2 1 0 1 0 0 0 0 1 1 0 0 0 0 0 0 0
97 77 33 12 1 2 3 3 2 2 2 3 5 3 5 8 9 5 0 0 0 0 0 0 0 0 0 1 1 0 0 0 0 0 0 0 0 0 0 0 0 0 0
CIN
-0 -0 -0 -0 -0 -0 -0 -0 -0 -356 -368 -294 -183 -159 -175 -182 -132 -119 -101 -93 -42 -16 -26 -6 -0 -0 -2 -52 -14 -13 -16 -21 -7 -1 -1 -39 -36 -0 -2 -7 -4 -0 -14
-0 -0 -0 -0 -0 -0 -0 -0 -423 -407 -415 -319 -173 -164 -178 -148 -98 -91 -102 -76 -33 -17 -14 -1 -0 -1 -2 -19 -5 -4 -9 -8 -7 -1 -12 -51 -18 -5 -0 -0 -1 -0 -1
-0 -1 -0 -0 -0 -0 -0 -0 -407 -311 -326 -256 -157 -156 -143 -122 -79 -74 -96 -49 -22 -18 -1 -9 -1 -1 -22 -19 -1 -3 -1 -1 -0 -0 -1 -15 -0 -0 -0 -0 -4 -22 -0
-1 -2 -2 -0 -0 -0 -210 -177 -349 -329 -287 -178 -140 -141 -134 -116 -69 -75 -59 -32 -20 -8 -1 -10 -3 -24 -23 -5 -1 -1 -1 -0 -0 -0 -2 -3 -14 -0 -0 -0 -0 -1 -0
-1 -1 -0 -0 -0 -0 -174 -259 -286 -280 -232 -145 -126 -109 -115 -95 -59 -71 -41 -30 -18 -4 -1 -11 -20 -34 -30 -3 -4 -1 -1 -0 -2 -1 -0 -6 -16 -2 -16 -0 -0 -0 -0
-2 -1 -2 -0 -0 -0 -70 -169 -212 -214 -162 -139 -95 -93 -94 -81 -92 -91 -56 -29 -7 -7 -26 -36 -38 -75 -109 -137 -54 -0 -14 -0 -1 -1 -2 -0 -5 -13 -1 -12 -5 -0 -0
-1 -1 -2 -2 -0 -0 -58 -138 -135 -133 -100 -62 -63 -74 -73 -53 -167 -148 -83 -6 -32 -31 -43 -37 -22 -61 -102 -69 -0 -0 -0 -0 -22 -6 -0 -0 -0 -35 -15 -15 -11 -0 -10
-0 -0 -1 -1 -1 -89 -14 -103 -91 -44 -51 -46 -58 -62 -39 -152 -221 -192 -124 -43 -43 -42 -24 -13 -9 -10 -10 -0 -6 -1 -6 -21 -48 -34 -6 -1 -4 -21 -5 -3 -9 -0 -17
-0 -0 -1 -1 -1 -40 -37 -48 -17 -16 -21 -30 -54 -47 -51 -300 -308 -227 -194 -61 -45 -32 -12 -4 -4 -5 -3 -0 -1 -1 -1 -34 -0 -0 -15 -29 -23 -10 -0 -26 -0 -1 -1
-0 -1 -0 -0 -37 -1 -12 -3 -10 -27 -52 -67 -53 -42 -77 -241 -386 -0 -161 -124 -79 -42 -3 -4 -0 -3 -0 -0 -5 -1 -8 -13 -0 -0 -0 -0 -31 -29 -32 -2 -29 -4 -18
-0 -0 -0 -95 -2 -0 -6 -42 -57 -72 -70 -77 -60 -47 -72 -201 -0 -0 -210 -130 -89 -27 -15 -10 -0 -0 -0 -0 -0 -0 -0 -0 -0 -0 -0 -0 -3 -0 -0 -0 -0 -1 -0
-24 -1 -0 -2 -4 -27 -64 -66 -86 -97 -118 -88 -117 -103 -148 -254 -0 -0 -235 -196 -50 -10 -1 -6 -7 -0 -0 -0 -0 -0 -0 -1 -0 -0 -0 -0 -0 -0 -1 -0 -0 -0 -3
-52 -0 -0 -10 -41 -61 -70 -91 -95 -79 -178 -190 -121 -250 -237 -271 -0 -0 -0 -139 -37 -3 -2 -0 -0 -0 -0 -0 -0 -0 -0 -1 -1 -1 -25 -0 -0 -0 -1 -2 -0 -31 -7
-124 -6 -14 -31 -25 -38 -46 -68 -72 -138 -108 -164 -263 -200 -230 -0 -0 -0 -0 -0 -0 -0 -0 -0 -0 -0 -0 -0 -0 -0 -0 -1 -0 -1 -1 -0 -0 -0 -0 -0 -5 -0 -0
-56 -23 -46 -56 -101 -113 -155 -25 -12 -85 -151 -205 -137 -169 -197 -171 -144 -0 -0 -0 -0 -0 -0 -0 -0 -0 -0 -0 -0 -0 -1 -1 -1 -0 -0 -0 -0 -8 -0 -0 -2 -0 -3
-44 -83 -165 -211 -181 -165 -187 -295 -0 -85 -53 -45 -44 -112 -72 -22 -0 -0 -0 -0 -0 -0 -0 -0 -0 -0 -0 -3 -1 -0 -1 -2 -1 -0 -0 -0 -0 -0 -0 -0 -2 -0 -1
-66 -54 -98 -71 -78 -84 -78 -193 -0 -0 -0 -0 -0 -0 -0 -0 -0 -0 -0 -0 -0 -0 -0 -0 -0 -0 -0 -0 -0 -1 -0 -1 -0 -1 -0 -0 -0 -0 -0 -0 -0 -0 -0
-47 -28 -6 -1 -30 -37 -93 -131 -0 -169 -15 -0 -0 -0 -0 -0 -0 -0 -0 -0 -0 -0 -1 -0 -0 -0 -1 -1 -0 -0 -1 -2 -0 -0 -1 -0 -0 -0 -0 -0 -0 -0 -6
-0 -14 -0 -1 -12 -31 -25 -48 -47 -93 -22 -0 -0 -0 -0 -0 -0 -0 -0 -1 -0 -0 -0 -0 -0 -2 -2 -5 -0 -0 -1 -7 -0 -0 -0 -0 -0 -0 -0 -1 -0 -0 -1
-3 -11 -1 -1 -1 -10 -13 -16 -60 -46 -4 -1 -1 -0 -0 -0 -0 -0 -0 -0 -0 -1 -0 -4 -1 -0 -7 -0 -7 -3 -4 -2 -0 -0 -0 -0 -0 -0 -0 -0 -0 -0 -0
-42 -6 -6 -1 -2 -1 -4 -3 -3 -17 -0 -1 -0 -0 -0 -2 -0 -0 -0 -0 -1 -5 -0 -0 -0 -0 -0 -1 -1 -3 -1 -1 -1 -1 -0 -0 -0 -4 -0 -0 -0 -0 -0
-2 -1 -1 -1 -0 -0 -1 -2 -2 -0 -0 -0 -0 -0 -0 -19 -18 -0 -0 -0 -0 -68 -0 -3 -2 -11 -47 -2 -0 -0 -1 -4 -1 -7 -13 -0 -0 -0 -0 -0 -0 -3 -0
-3 -1 -1 -1 -1 -5 -0 -1 -0 -0 -0 -0 -0 -17 -7 -4 -0 -0 -0 -0 -0 -0 -0 -0 -0 -0 -0 -2 -7 -3 -21 -0 -0 -2 -2 -6 -4 -1 -18 -8 -11 -0 -3
-2 -1 -3 -9 -12 -1 -1 -1 -0 -0 -0 -0 -17 -0 -0 -0 -0 -0 -0 -0 -0 -0 -0 -0 -0 -0 -0 -0 -0 -0 -0 -0 -0 -2 -1 -13 -0 -0 -2 -42 -17 -0 -0
-13 -8 -1 -1 -0 -0 -0 -0 -0 -36 -0 -0 -0 -0 -0 -0 -0 -0 -0 -0 -0 -0 -0 -0 -0 -0 -0 -0 -0 -0 -0 -0 -0 -0 -0 -0 -0 -0 -0 -0 -0 -0 -0
-1 -11 -1 -0 -0 -0 -0 -0 -0 -0 -0 -0 -0 -0 -0 -0 -0 -0 -0 -0 -0 -0 -0 -0 -0 -0 -0 -0 -0 -0 -0 -0 -0 -0 -0 -0 -0 -0 -0 -0 -0 -0 -0
Wind_Speed
49 50 49 50 50 50 51 50 46 39 33 34 29 25 22 20 17 15 14 13 13 12 12 9 5 6 8 12 11 10 9 10 11 12 15 14 14 11 10 11 13 8 6
50 50 51 50 49 48 49 49 45 42 36 33 29 25 22 20 18 16 14 13 12 11 9 5 4 5 10 12 9 9 8 10 11 12 13 13 13 12 11 11 13 12 11
50 51 52 52 51 50 48 47 46 40 35 32 29 25 22 21 18 16 13 12 11 10 6 4 5 7 9 8 7 8 7 9 9 11 11 12 13 11 11 11 11 11 12
51 52 53 52 51 50 48 46 45 39 35 32 27 24 21 19 17 14 12 10 9 8 4 4 6 8 7 6 5 6 8 9 8 9 11 11 12 11 11 10 9 11 10
53 53 54 51 52 50 49 45 42 37 33 28 25 22 20 18 16 12 10 10 8 5 4 5 8 7 8 6 6 5 7 6 9 10 10 12 11 11 11 11 11 10 12
54 55 54 53 52 52 48 44 39 33 29 25 21 20 18 16 14 11 9 8 5 4 5 6 7 6 6 6 7 11 11 9 10 11 10 11 12 12 13 10 11 11 14
52 54 56 54 53 52 46 41 36 31 26 23 20 19 16 14 12 10 8 6 5 4 4 5 5 5 4 4 5 7 10 12 13 15 14 13 13 13 12 11 11 9 11
59 59 56 54 53 51 45 40 34 28 25 22 20 17 15 12 11 9 6 4 4 4 4 3 3 4 4 3 4 5 8 11 13 13 13 12 13 7 12 12 16 12 8
55 55 54 53 51 50 44 38 31 26 24 22 19 16 14 12 11 10 7 4 4 3 3 1 2 4 4 4 6 6 8 11 13 13 13 8 9 11 6 9 11 12 11
42 46 51 52 53 47 40 35 29 26 24 20 16 14 11 12 12 11 7 4 3 2 2 3 6 5 4 3 5 6 6 7 8 10 10 5 9 18 6 2 4 7 10
48 57 54 52 47 40 34 31 28 25 21 17 14 12 11 11 12 13 7 4 3 2 1 3 3 4 4 4 5 7 6 8 9 10 7 6 5 3 6 0 11 6 2
8 29 32 34 35 33 31 28 26 23 19 16 13 11 9 10 11 10 6 9 2 2 2 3 5 3 4 5 7 9 7 8 10 9 9 5 5 4 6 4 11 13 14
9 21 27 30 30 29 28 26 23 20 17 15 14 11 11 10 10 8 7 4 4 3 4 7 5 4 5 8 8 6 7 7 9 7 6 7 6 8 7 8 11 13 16
3 17 23 25 26 25 23 20 18 17 15 14 13 13 11 10 9 8 5 3 3 5 5 5 5 5 7 8 7 7 7 7 8 9 7 8 7 5 6 7 11 12 16
11 16 19 21 21 20 17 16 15 13 14 15 14 12 11 10 9 6 5 2 0 2 3 3 3 4 5 5 5 6 6 6 7 7 7 7 6 7 9 9 14 14 15
15 17 17 18 18 17 15 12 8 11 11 11 11 9 8 6 8 6 2 0 1 4 2 2 3 3 3 4 4 5 8 8 9 8 7 7 6 5 8 13 17 12 14
17 17 16 15 15 16 14 14 15 9 9 7 7 6 5 6 8 6 3 3 5 1 5 5 4 3 2 4 4 6 9 11 9 8 7 7 7 8 5 14 22 25 30
18 17 15 14 13 14 13 14 13 12 12 9 6 5 5 10 9 7 7 6 2 10 9 6 5 3 2 3 4 5 9 10 10 9 7 7 7 8 7 9 15 18 17
26 26 19 11 12 13 13 13 11 13 10 8 5 2 3 5 6 8 10 5 2 9 11 12 6 2 2 2 4 6 8 10 9 9 8 7 7 8 6 11 9 18 9
34 22 15 9 12 14 13 15 13 10 7 6 4 3 2 2 2 4 3 3 3 10 12 8 4 3 1 2 3 5 6 7 8 8 10 10 9 7 7 8 5 4 2
22 19 14 15 29 26 18 13 10 8 6 6 3 3 8 3 4 3 4 9 10 10 10 5 5 4 2 3 8 4 6 8 10 10 8 8 8 6 7 7 8 7 6
24 40 38 32 23 19 13 10 8 8 6 4 4 2 2 2 3 3 6 8 10 11 11 6 9 4 3 3 4 4 6 9 10 10 11 10 8 8 6 5 5 5 8
35 35 29 21 18 12 9 7 7 7 7 7 7 3 1 3 4 4 4 7 8 8 9 7 7 6 8 8 10 13 14 12 13 10 10 10 11 7 7 6 10 10 13
29 25 18 14 11 9 8 9 7 9 8 6 3 2 3 3 3 3 3 4 5 6 6 6 6 6 8 9 11 13 14 15 13 14 11 10 9 9 9 8 7 8 9
24 16 12 11 10 8 12 10 8 8 6 4 4 4 4 4 3 3 2 3 5 5 5 5 6 6 7 9 10 12 13 14 15 16 13 13 12 12 12 12 12 13 14
17 9 8 8 8 11 10 9 8 7 5 5 5 5 5 4 2 1 1 3 5 5 6 6 7 8 7 9 9 9 9 9 9 11 10 11 12 11 11 13 14 14 16
Wind_Direction
277 273 271 268 267 265 261 260 261 263 263 263 262 261 256 250 248 252 270 283 291 299 309 304 290 309 319 329 333 338 343 342 335 349 343 352 354 360 8 352 335 356 16
276 273 268 267 266 265 262 258 258 260 261 260 257 253 251 249 247 253 267 279 285 293 302 277 279 304 316 327 332 334 339 338 332 337 341 343 350 356 349 345 329 320 316
276 270 267 264 263 262 261 258 255 257 258 256 251 246 244 245 244 251 262 274 284 294 289 263 281 304 320 326 326 333 333 332 334 335 340 341 340 350 345 340 329 322 308
275 270 265 262 262 261 260 256 252 252 253 252 246 241 240 236 237 243 256 271 284 289 266 277 295 308 317 321 329 328 330 330 333 333 330 332 332 333 336 333 324 314 311
275 268 263 260 258 258 256 253 249 247 248 247 241 238 231 227 230 234 247 271 279 265 272 292 301 315 325 331 330 329 332 328 329 327 324 322 320 319 313 316 311 305 296
273 265 260 257 254 252 252 248 244 241 240 239 230 222 216 221 225 230 246 264 255 243 273 294 313 322 329 325 321 330 329 325 325 324 316 313 308 304 299 302 302 296 281
270 263 257 252 249 247 247 241 234 232 230 225 217 210 208 225 209 224 241 251 227 256 284 296 319 333 338 336 330 326 324 324 323 321 313 304 299 292 289 283 282 300 289
268 260 249 244 242 241 239 231 226 222 215 208 203 204 209 232 205 206 217 220 242 272 285 306 336 345 347 4 356 343 338 333 328 326 323 319 300 301 280 270 265 283 319
261 248 240 237 235 233 227 220 215 208 203 200 199 198 213 225 192 187 192 218 253 265 298 350 355 355 12 1 359 352 347 345 339 341 342 340 310 285 275 262 264 267 278
249 242 235 230 226 222 215 209 204 201 196 196 201 206 215 194 189 178 187 217 240 279 310 339 335 355 27 41 13 8 0 8 6 356 342 21 108 249 114 120 271 282 273
263 237 226 216 211 206 200 199 195 193 193 194 199 205 195 192 182 170 198 230 254 273 292 349 356 4 27 48 31 5 39 39 36 68 8 316 92 48 115 4 283 291 303
150 176 183 185 188 191 189 189 188 185 186 190 190 195 200 189 179 183 209 276 277 274 328 354 349 44 30 30 18 351 48 64 64 76 70 353 320 327 308 300 282 283 284
80 154 162 171 178 181 180 179 183 182 190 192 191 202 194 196 200 212 239 276 295 320 341 333 9 53 30 22 13 41 69 61 70 58 28 9 346 300 301 296 290 282 276
163 164 169 169 175 179 183 182 185 191 194 195 193 184 185 191 203 224 239 256 299 324 341 348 17 37 2 30 40 54 46 52 55 65 47 357 350 349 317 306 291 285 274
213 187 179 179 180 178 185 197 195 199 186 175 179 181 179 193 211 190 170 178 202 336 2 12 12 19 359 25 19 341 356 12 1 24 43 43 21 334 310 301 288 280 276
221 203 194 192 188 187 181 179 173 169 167 180 187 183 200 184 153 156 203 246 93 112 27 346 333 336 8 32 18 328 317 330 334 340 11 57 30 17 327 294 276 281 277
221 205 200 194 186 180 176 169 158 158 149 169 178 169 174 146 138 135 126 106 112 70 318 309 302 316 27 47 50 328 303 311 329 339 1 25 34 358 14 285 258 247 223
212 198 188 190 172 165 161 158 161 168 179 194 229 232 129 119 120 118 113 99 39 292 289 295 288 309 351 33 22 338 308 313 323 332 356 28 41 43 43 307 268 265 267
216 203 204 181 165 163 165 174 169 187 193 195 198 194 111 104 105 113 116 82 41 285 274 272 295 323 320 44 35 317 322 309 323 329 337 21 33 64 52 291 301 236 306
200 198 202 168 161 177 169 187 186 183 174 163 149 148 156 88 111 111 337 48 17 281 273 289 325 322 321 36 63 72 348 330 347 339 327 328 341 2 350 322 9 43 66
188 200 195 133 186 190 188 182 178 171 157 136 145 137 108 87 107 86 3 296 291 289 289 315 307 301 91 84 102 16 327 317 317 327 357 15 16 14 349 342 335 351 0
164 174 177 182 187 189 185 181 157 139 140 133 133 136 58 24 44 360 310 295 290 287 287 300 281 283 285 315 78 43 335 314 315 331 331 344 36 57 59 63 61 45 350
170 176 182 186 187 172 160 158 135 125 121 120 115 110 317 23 23 3 316 295 292 290 277 290 273 280 267 285 278 273 282 297 303 335 354 355 330 15 13 360 333 336 326
178 181 179 178 164 166 138 116 122 115 120 134 137 104 69 57 32 6 329 304 290 276 287 300 296 300 288 287 281 278 286 288 315 311 344 34 45 29 9 20 16 4 351
180 179 176 178 176 132 113 117 130 127 135 143 114 97 80 76 53 12 356 8 26 21 360 335 324 323 317 317 297 287 290 294 289 284 316 322 339 343 354 358 356 350 347
183 163 148 154 133 116 121 136 145 143 124 112 109 108 98 76 65 69 280 28 32 20 13 3 2 359 344 339 338 339 343 343 342 340 344 3 2 4 5 2 354 346 344